SCP
0 0 0 0 0 0 0 0 -0 -0 -0 -0 -0 -0 -0 -0 0 0 0 0 0 0 0 0 0 0 0 0 0 0 0 0 0 0 0 0 -0 -0 -0 0 0 0 0
0 0 0 0 0 0 0 0 -0 -0 -0 -0 -0 -0 -0 -0 0 0 -0 -0 0 0 0 0 0 0 0 0 0 0 0 0 0 0 0 0 0 0 0 0 0 0 0
0 0 0 0 0 0 0 0 0 -0 -0 -0 -0 -0 -0 -0 -0 -0 -0 -0 -0 0 0 0 0 0 0 0 0 0 0 0 0 0 0 0 0 0 0 0 0 0 0
0 0 0 0 0 0 0 0 0 -0 -0 -0 -0 -0 -0 -0 -0 -0 -0 -0 -0 -0 -0 0 0 0 0 0 -0 -0 0 0 0 0 0 0 0 0 0 0 0 0 0
0 0 0 0 0 0 0 0 0 0 -0 -0 -0 -0 -0 -0 -0 -0 -0 -0 -0 -0 -0 0 0 0 -0 -0 -0 -0 -0 0 0 0 0 0 0 0 0 0 0 0 0
0 0 0 0 0 0 0 0 0 0 0 -0 -0 -0 -0 -0 -0 -0 -0 -0 -0 -0 -0 0 0 0 -0 -0 -0 -0 -0 0 0 0 0 0 0 0 0 0 0 0 0
0 0 0 0 0 0 0 0 0 0 0 -0 -0 -0 -0 -0 -0 -0 -0 -0 -0 -0 -0 0 0 0 -0 -0 -0 -0 0 0 0 0 0 0 0 0 0 0 0 0 0
0 0 0 0 0 0 0 0 0 0 0 -0 -0 -0 -0 -0 -0 -0 -0 -0 -0 -0 0 0 0 0 0 0 0 0 0 0 0 0 0 0 0 0 0 0 0 0 0
0 0 0 0 0 0 0 0 0 0 0 0 0 -0 0 0 0 -0 -0 -0 -0 -0 0 0 0 0 0 0 0 0 0 0 0 0 0 0 0 0 0 0 0 0 0
0 0 0 0 0 0 0 0 0 0 0 0 0 0 0 0 0 0 -0 0 0 0 0 0 0 0 0 0 0 0 0 0 0 0 0 0 0 0 0 0 0 0 0
0 0 0 0 0 0 0 0 0 0 0 0 0 0 0 0 0 0 0 0 0 0 0 0 0 0 0 0 0 0 0 0 0 0 0 0 0 0 0 0 0 0 0
0 0 0 0 0 0 0 0 0 0 0 0 0 0 0 0 0 0 0 0 0 0 0 0 0 0 0 0 0 0 0 0 0 0 0 0 0 0 0 0 0 0 0
0 0 0 0 0 0 0 0 0 0 0 0 0 0 0 0 0 0 0 0 0 0 0 0 0 0 0 0 0 0 0 0 0 0 0 0 0 0 0 0 0 0 0
0 0 0 0 0 0 0 0 0 0 0 0 0 0 0 0 0 0 0 0 0 0 0 0 0 0 0 0 0 0 0 0 0 0 0 0 0 0 0 0 0 0 0
0 0 0 0 0 0 0 0 0 0 0 0 0 0 0 0 0 0 0 0 0 0 0 0 0 0 0 0 0 0 0 0 0 0 0 0 0 0 0 0 0 0 0
0 0 0 0 0 0 0 0 0 0 0 0 0 0 0 0 0 0 0 0 0 0 0 0 0 0 0 0 0 0 0 0 0 0 0 0 0 0 0 0 0 0 0
0 0 0 0 0 0 0 0 0 0 0 0 0 0 0 0 0 0 0 0 0 0 0 0 0 0 0 0 0 0 0 0 0 0 0 0 0 0 0 0 0 0 0
0 0 0 0 0 0 0 0 0 0 0 0 0 0 0 0 0 0 0 0 0 0 0 0 0 0 0 0 0 0 0 0 0 0 0 0 0 0 0 0 0 0 0
0 0 0 0 0 0 0 0 0 0 0 0 0 0 0 0 0 0 0 0 0 0 0 0 0 0 0 0 0 0 0 0 0 0 0 0 0 0 0 0 0 0 0
1 1 0 0 0 0 0 0 0 0 0 0 0 0 0 0 0 0 0 0 0 0 0 0 0 0 0 0 0 0 0 0 0 0 0 0 0 0 0 0 0 0 0
1 1 1 0 0 0 0 0 0 0 0 0 0 0 0 0 0 0 0 0 0 0 0 0 0 0 0 0 0 0 0 0 0 0 0 0 0 0 0 0 0 0 0
1 1 1 0 0 0 0 0 0 0 0 0 0 0 0 0 0 0 0 0 0 0 0 0 0 0 0 0 0 0 0 0 0 0 0 0 0 0 0 0 0 0 0
1 1 1 1 0 0 0 0 0 0 0 0 0 0 0 0 0 0 0 0 0 0 0 0 0 0 0 0 0 0 0 0 0 0 0 0 0 0 0 0 0 0 0
0 1 1 1 0 0 0 0 0 0 0 0 0 0 0 0 0 0 0 0 0 0 0 0 0 0 0 0 0 0 0 0 0 0 0 0 0 0 0 0 0 0 0
0 0 1 1 1 0 0 0 0 0 0 0 0 0 0 0 0 0 0 0 0 0 0 0 0 0 0 0 0 0 0 0 0 0 0 0 0 0 0 0 0 0 0
0 0 1 1 1 0 0 0 0 0 0 0 0 0 0 0 0 0 0 0 0 0 0 0 0 0 0 0 0 0 0 0 0 0 0 0 0 0 0 0 0 0 0
Wind_Speed
9 10 10 9 8 7 7 6 6 6 6 6 6 6 6 6 6 6 7 7 7 7 7 7 6 5 5 5 5 4 5 5 5 5 5 5 6 6 6 6 6 5 7
11 11 11 9 8 7 7 6 6 5 5 5 6 6 6 6 6 6 6 6 6 6 6 6 6 6 6 5 4 4 5 5 5 6 6 6 6 7 6 6 5 4 7
10 11 10 9 8 8 7 6 6 6 5 5 6 6 6 6 6 6 6 6 6 6 6 6 6 6 6 5 5 5 6 6 6 7 7 5 6 8 7 7 6 6 7
9 9 9 10 8 8 7 6 5 5 5 5 6 6 6 6 6 6 6 6 5 5 6 6 6 6 5 5 5 5 6 7 7 7 5 5 5 9 9 8 7 7 7
9 10 11 10 8 7 7 6 5 5 5 5 6 6 6 6 6 6 6 6 5 5 5 5 5 6 6 6 6 6 6 7 8 8 4 4 4 8 10 9 8 8 8
10 11 11 10 8 7 7 6 6 5 6 6 6 6 6 6 6 6 6 6 5 5 4 5 5 6 6 6 6 6 6 7 7 6 4 4 4 8 9 9 8 8 8
10 11 11 10 8 7 6 7 7 6 6 6 6 6 6 6 6 6 6 5 5 5 5 4 5 6 6 7 7 7 7 7 6 3 2 3 5 9 9 9 9 8 8
9 10 10 10 8 7 8 9 8 7 6 6 6 6 6 6 6 6 6 6 6 5 5 4 5 6 6 7 7 8 8 8 6 5 4 4 7 9 10 9 9 8 8
8 9 8 8 7 8 9 10 9 8 7 7 7 6 6 6 7 7 7 7 6 5 5 5 5 6 6 7 8 9 9 9 5 3 4 4 8 10 10 9 9 8 8
7 7 6 7 6 7 8 10 10 10 9 8 7 7 6 6 7 8 8 7 7 6 6 6 6 7 7 8 9 10 9 8 6 4 3 5 9 10 10 9 9 8 8
6 6 5 5 5 5 6 9 10 10 9 7 6 7 5 3 4 5 6 9 8 7 7 6 6 7 7 8 10 10 8 4 4 3 3 7 9 9 10 9 9 8 8
6 5 5 5 4 5 4 6 4 5 5 4 3 3 3 2 2 3 7 8 8 7 7 7 7 6 7 4 6 8 4 5 4 3 4 9 9 9 9 9 9 8 9
5 6 6 6 5 5 4 4 2 3 3 4 4 2 2 1 1 2 2 3 4 5 3 4 5 4 3 2 2 3 3 3 2 3 5 10 10 9 9 8 8 8 8
5 7 7 7 5 5 5 3 3 3 2 3 4 2 2 1 1 1 1 1 1 1 1 1 2 2 2 2 2 2 3 2 2 3 5 9 9 9 9 8 8 8 8
6 7 7 6 6 5 4 2 3 3 3 3 3 3 2 2 2 2 1 1 0 0 1 1 1 1 2 2 2 3 3 3 2 3 4 8 9 9 9 9 8 9 9
5 6 6 6 6 5 4 2 2 3 3 3 3 3 2 2 2 1 1 0 0 0 1 1 1 0 1 1 1 2 2 2 2 3 4 5 8 8 9 9 9 9 9
6 5 5 5 7 6 4 2 3 3 3 3 3 3 2 2 2 1 1 1 1 1 0 0 1 0 1 1 1 1 1 2 3 3 3 3 4 7 8 9 9 8 9
7 6 4 5 7 5 3 2 2 3 3 3 3 3 2 2 2 1 1 1 1 1 1 0 0 1 0 0 1 1 1 1 2 2 2 3 3 3 6 8 8 8 8
7 6 6 6 6 4 3 2 2 2 2 2 3 2 2 2 2 1 1 1 1 1 1 2 2 2 1 0 1 1 1 1 1 2 2 2 3 3 3 6 7 7 7
7 6 6 5 5 3 3 3 2 3 3 2 3 2 2 2 2 1 1 1 1 1 1 2 2 1 1 1 2 1 0 1 1 1 2 2 2 3 3 4 4 4 5
7 7 6 5 4 3 2 2 2 2 2 2 2 3 2 2 2 1 2 1 1 1 1 2 2 2 1 0 0 1 1 2 1 1 1 1 1 2 2 4 3 3 2
7 7 6 5 4 3 2 2 1 2 2 3 2 2 3 2 2 2 2 1 1 1 1 1 1 1 2 1 1 1 1 1 1 0 1 1 1 1 1 2 3 3 3
7 7 5 4 4 3 3 2 2 2 2 2 2 2 2 2 2 2 2 2 1 1 1 1 1 1 2 2 1 1 0 1 1 1 1 0 0 1 1 1 3 2 2
8 7 6 5 4 3 3 2 2 3 2 2 2 2 2 1 2 2 2 2 2 2 2 2 2 2 2 2 2 1 1 0 0 1 1 1 1 1 1 1 2 2 3
9 8 7 6 5 4 3 2 2 2 1 2 2 2 2 1 1 2 2 2 2 2 2 3 2 2 2 2 2 2 2 1 0 1 1 1 1 1 0 0 1 2 2
9 8 8 7 5 4 3 3 2 2 1 2 2 1 1 1 1 2 2 2 2 2 2 3 2 2 2 3 2 2 2 2 1 1 1 1 0 1 0 1 1 2 2
Wind_Direction
98 106 118 114 111 109 108 108 113 121 122 124 128 128 129 127 127 125 122 124 127 132 135 141 146 150 147 142 139 137 143 148 148 156 158 153 147 143 149 157 165 161 156
106 113 120 117 116 113 111 113 116 123 127 129 133 136 138 138 135 131 131 132 133 137 142 149 154 160 156 152 148 151 160 165 171 176 175 169 162 160 165 172 173 156 154
110 121 124 123 120 118 118 118 121 125 130 140 146 144 144 144 142 142 139 139 144 149 150 152 159 166 165 165 165 169 176 182 186 191 191 188 170 171 174 176 170 169 163
111 120 122 126 125 125 124 121 122 125 129 137 150 153 149 146 146 147 147 148 151 157 164 164 169 172 174 177 182 183 187 197 203 207 202 190 180 172 175 176 176 176 174
101 109 121 129 129 129 133 134 133 131 129 126 136 149 149 146 146 147 151 152 154 157 166 174 179 178 180 187 196 198 200 209 218 222 208 176 162 164 170 174 178 181 180
103 109 122 133 136 142 147 149 146 137 128 124 129 139 145 148 146 147 153 160 162 159 165 178 187 189 189 195 206 210 214 218 226 224 198 168 156 164 168 172 176 181 185
105 112 129 140 143 148 154 156 149 141 136 134 134 138 146 151 152 155 161 166 169 170 177 186 196 199 202 205 213 219 223 229 232 226 171 150 155 166 170 173 177 182 188
95 108 125 144 147 149 148 151 150 144 142 140 139 145 153 159 167 169 168 165 168 177 187 194 196 199 206 215 221 225 228 233 228 219 169 159 166 170 172 175 178 182 189
93 113 131 142 151 152 147 149 152 154 152 151 150 157 165 173 179 178 169 164 167 171 182 195 202 208 214 221 223 224 227 228 240 227 181 163 168 172 174 176 180 186 191
79 95 116 131 144 157 155 153 158 161 164 166 166 169 174 183 183 180 170 164 166 174 184 193 203 209 218 224 226 228 229 232 225 211 174 170 173 175 179 182 184 191 194
67 72 83 102 123 133 142 149 163 167 170 174 176 179 185 182 178 178 164 162 173 182 190 198 210 217 223 228 227 227 229 224 201 191 168 169 174 177 182 190 195 196 199
66 68 71 72 67 85 96 130 153 149 151 157 138 157 165 171 168 148 154 169 180 189 196 207 221 225 228 227 220 217 222 209 196 173 161 171 177 180 185 193 199 202 204
69 66 76 84 67 58 66 93 107 112 129 132 123 133 129 127 124 123 149 165 184 189 200 200 216 219 219 214 206 209 214 203 184 157 160 168 176 183 189 195 201 205 208
77 72 72 75 74 62 59 62 87 93 106 108 111 95 92 93 68 86 102 128 164 171 176 196 217 210 223 218 203 219 219 202 155 141 160 170 174 183 190 196 200 207 212
79 76 76 73 68 60 62 49 78 78 75 91 98 94 80 88 79 71 67 53 11 65 129 284 260 230 212 215 211 206 205 190 162 154 149 169 174 183 192 200 205 208 212
95 87 86 89 90 75 66 54 73 90 100 92 92 82 76 79 76 67 79 87 11 29 110 237 283 318 248 217 218 224 207 189 153 142 150 168 181 189 195 200 204 210 213
101 93 102 112 102 94 82 51 65 66 80 86 88 85 76 64 73 73 98 65 9 341 332 261 336 309 232 230 214 232 182 179 154 156 159 164 176 193 202 202 203 209 215
102 94 88 97 101 103 98 76 62 65 71 81 86 83 78 66 70 69 86 49 356 335 311 289 24 318 290 259 234 251 165 145 150 162 174 172 171 182 195 201 206 209 216
101 99 92 87 99 104 112 106 97 89 76 79 82 81 78 74 69 47 80 60 336 18 357 351 29 9 0 313 262 219 178 177 175 192 173 173 178 174 172 183 193 205 212
109 105 101 99 97 106 107 106 98 90 85 78 79 70 72 68 67 35 87 63 7 47 13 2 3 353 316 265 289 330 178 186 180 183 177 175 175 185 173 165 176 197 202
111 111 110 108 107 108 106 106 106 103 105 97 92 81 69 57 53 43 40 39 357 71 36 350 359 340 316 284 339 336 279 207 181 175 181 159 193 178 145 142 153 161 163
122 120 116 114 112 111 113 115 125 114 105 98 78 75 59 49 38 48 45 15 3 27 18 322 328 326 313 317 321 325 331 329 358 298 111 148 222 142 126 155 131 133 146
130 126 123 122 120 118 111 117 103 92 79 81 87 79 50 44 46 30 46 23 360 9 354 298 336 317 310 315 313 304 323 341 2 10 11 148 31 80 121 121 120 134 143
141 135 127 127 122 116 113 115 121 116 108 90 92 91 74 43 46 43 44 26 5 16 10 345 18 339 324 323 322 316 294 283 230 329 347 357 16 28 44 77 114 121 122
141 139 135 131 129 126 130 117 110 98 90 88 100 109 104 70 46 41 35 25 20 21 10 357 359 350 341 334 326 330 336 321 264 202 281 306 332 354 21 98 102 110 116
145 144 140 137 139 140 138 128 117 105 76 77 75 94 115 90 51 37 48 28 22 10 5 353 345 353 353 345 326 325 319 316 288 244 238 251 268 295 343 70 89 95 100